Location: Montreal
(45.5087°N, 73.5540°W)
Time: 03:37:15
(UTC-04:00)

Envisat - Visible Passes

Search period start: 27 May 2018 00:00
Search period end: 06 June 2018 00:00
Orbit: 764 x 766 km, 98.2° (Epoch: 26 May)

Date Brightness Start Highest point End Pass type
(mag) Time Alt. Az. Time Alt. Az. Time Alt. Az.
27 May 5.3 21:12:54 10° SW 21:16:56 24° W 21:21:01 10° NW visible
29 May 5.7 21:40:14 10° WSW 21:42:49 14° W 21:45:25 10° WNW visible
01 Jun 5.6 21:28:11 10° SW 21:31:31 17° W 21:34:53 10° NW visible
04 Jun 5.4 21:16:23 10° SW 21:20:15 22° W 21:24:09 10° NW visible
